Location: Coffee Ditch
(40.9640°N, 122.7500°W)
Time: 07:40:33
(UTC+00:00)

Cosmos 1606 Rocket - Pass Details

Date: 08 September 2024
Orbit: 599 x 626 km, 82.5° (Epoch: 09 October)

Event Time Altitude Azimuth Distance (km) Brightness Sun altitude
Rises 12:29:27 0° 178° (S) 2,837 6.8 -14.7°
Reaches altitude 10° 12:31:39 10° 175° (S) 1,942 5.9 -14.3°
Maximum altitude 12:35:53 63° 95° (E) 677 4.0 -13.5°
Drops below altitude 10° 12:40:12 10° 14° (NNE) 1,973 6.6 -12.8°
Sets 12:42:27 0° 12° (NNE) 2,887 7.4 -12.4°
